TimeMDT,TemperatureF,Dew PointF,Humidity,Sea Level PressureIn,VisibilityMPH,Wind Direction,Wind SpeedMPH,Gust SpeedMPH,PrecipitationIn,Events,Conditions,WindDirDegrees,DateUTC
12:53 AM,37.0,30.0,76,29.89,10.0,North,6.9,-,N/A,,Clear,360,2012-10-22 06:53:00
1:53 AM,37.9,30.9,76,29.89,10.0,NNE,4.6,-,N/A,,Mostly Cloudy,20,2012-10-22 07:53:00
2:53 AM,36.0,30.0,79,29.88,10.0,NE,6.9,-,N/A,,Scattered Clouds,40,2012-10-22 08:53:00
3:53 AM,36.0,30.0,79,29.89,10.0,North,4.6,-,N/A,,Partly Cloudy,10,2012-10-22 09:53:00
4:53 AM,35.1,30.0,82,29.90,10.0,North,3.5,-,N/A,,Clear,360,2012-10-22 10:53:00
5:53 AM,33.1,30.0,89,29.91,10.0,Calm,Calm,-,N/A,,Partly Cloudy,0,2012-10-22 11:53:00
7:53 AM,34.0,30.0,85,29.90,10.0,Calm,Calm,-,N/A,,Mostly Cloudy,0,2012-10-22 13:53:00
8:53 AM,34.0,30.9,89,29.91,10.0,SSE,8.1,-,N/A,,Mostly Cloudy,160,2012-10-22 14:53:00
9:53 AM,36.0,32.0,86,29.90,10.0,North,4.6,-,N/A,,Mostly Cloudy,360,2012-10-22 15:53:00
10:39 AM,37.4,32.0,81,29.83,10.0,NE,3.5,-,N/A,,Overcast,40,2012-10-22 16:39:00
10:45 AM,37.4,32.0,81,29.83,10.0,NE,4.6,-,N/A,,Overcast,40,2012-10-22 16:45:00
10:53 AM,37.4,32.0,81,29.83,10.0,NE,4.6,-,N/A,,Overcast,50,2012-10-22 16:53:00
11:53 AM,37.0,34.0,89,29.87,10.0,ENE,5.8,-,N/A,,Overcast,60,2012-10-22 17:53:00
12:18 PM,39.2,35.6,87,29.80,10.0,ENE,6.9,-,N/A,,Overcast,60,2012-10-22 18:18:00
12:53 PM,39.0,36.0,89,29.83,10.0,ENE,6.9,-,N/A,,Overcast,60,2012-10-22 18:53:00
1:08 PM,39.2,35.6,87,29.76,10.0,NE,5.8,-,N/A,,Overcast,40,2012-10-22 19:08:00
1:53 PM,39.0,37.0,93,29.77,5.0,NE,12.7,-,0.01,Rain,Light Rain,40,2012-10-22 19:53:00
2:16 PM,39.2,37.4,93,29.71,5.0,NE,12.7,-,0.00,Rain,Light Rain,40,2012-10-22 20:16:00
2:53 PM,39.0,37.9,96,29.73,8.0,ENE,10.4,-,0.00,Rain,Light Rain,60,2012-10-22 20:53:00
3:53 PM,39.0,37.9,96,29.71,5.0,NE,11.5,-,0.05,Rain,Light Rain,50,2012-10-22 21:53:00
4:53 PM,39.9,39.0,97,29.72,3.0,North,6.9,-,0.06,Rain,Rain,360,2012-10-22 22:53:00
5:24 PM,39.2,39.2,100,29.67,4.0,North,5.8,-,0.04,Rain,Light Rain,10,2012-10-22 23:24:00
5:33 PM,39.2,39.2,100,29.64,0.5,NNE,8.1,-,0.04,Rain,Light Rain,30,2012-10-22 23:33:00
5:44 PM,39.2,39.2,100,29.66,1.0,NNE,5.8,-,0.04,Rain,Light Rain,30,2012-10-22 23:44:00
5:50 PM,39.2,39.2,100,29.65,2.0,North,8.1,-,0.04,,Overcast,10,2012-10-22 23:50:00
5:51 PM,39.2,39.2,100,29.65,3.0,North,8.1,-,0.04,,Overcast,10,2012-10-22 23:51:00
5:53 PM,39.9,39.0,97,29.70,3.0,NNE,6.9,-,0.04,,Overcast,20,2012-10-22 23:53:00
6:05 PM,39.2,39.2,100,29.65,1.0,North,6.9,-,N/A,,Overcast,10,2012-10-23 00:05:00
6:08 PM,39.2,39.2,100,29.64,2.0,North,5.8,-,N/A,,Overcast,10,2012-10-23 00:08:00
6:19 PM,39.2,37.4,93,29.64,6.0,North,8.1,-,N/A,,Overcast,10,2012-10-23 00:19:00
6:53 PM,39.0,37.0,93,29.70,10.0,NNW,6.9,-,N/A,,Overcast,340,2012-10-23 00:53:00
7:53 PM,39.0,37.0,93,29.69,10.0,NNW,6.9,-,N/A,,Overcast,330,2012-10-23 01:53:00
8:01 PM,39.2,37.4,93,29.64,10.0,NW,5.8,-,N/A,,Overcast,310,2012-10-23 02:01:00
8:53 PM,39.0,37.0,93,29.68,10.0,West,3.5,-,N/A,,Overcast,270,2012-10-23 02:53:00
9:53 PM,39.0,37.0,93,29.68,10.0,SW,4.6,-,N/A,,Overcast,220,2012-10-23 03:53:00
10:32 PM,37.4,35.6,93,29.61,10.0,West,5.8,-,N/A,,Mostly Cloudy,260,2012-10-23 04:32:00
10:44 PM,37.4,35.6,93,29.61,10.0,WSW,5.8,-,N/A,,Mostly Cloudy,250,2012-10-23 04:44:00
10:53 PM,37.9,36.0,93,29.66,10.0,WSW,5.8,-,N/A,,Mostly Cloudy,250,2012-10-23 04:53:00
11:18 PM,37.4,37.4,100,29.61,4.0,WSW,6.9,-,N/A,,Overcast,250,2012-10-23 05:18:00
11:28 PM,37.4,37.4,100,29.60,9.0,WSW,4.6,-,N/A,Fog,Patches of Fog,250,2012-10-23 05:28:00